This is the latest recevied weather packets stored in our database for station/object KF0FSA. If no packets are shown the sender has not sent any weather packets the latest 10 day(s).
| Time | Temp. | Humidity | Pressure | Rain* | Wind** | Luminosity | Snow |
|---|---|---|---|---|---|---|---|
| 1777831231 | 21.11° C | 34% | 957.3 hPa | 0 mm | - | 910 W/m² | - |
| 1777830931 | 21.11° C | 33% | 957.4 hPa | 0 mm | - | 923 W/m² | - |
| 1777830642 | 21.11° C | 34% | 957.5 hPa | 0 mm | - | 910 W/m² | - |
| 1777830332 | 21.11° C | 34% | 957.5 hPa | 0 mm | - | 912 W/m² | - |
| 1777830032 | 21.11° C | 35% | 957.5 hPa | 0 mm | - | 921 W/m² | - |
| 1777829732 | 20.56° C | 35% | 957.5 hPa | 0 mm | - | 914 W/m² | - |
| 1777829432 | 20.56° C | 36% | 957.6 hPa | 0 mm | - | 916 W/m² | - |
| 1777829132 | 20.56° C | 35% | 957.7 hPa | 0 mm | - | 892 W/m² | - |
| 1777828837 | 20.56° C | 35% | 957.7 hPa | 0 mm | - | 892 W/m² | - |
| 1777828532 | 20.56° C | 35% | 957.7 hPa | 0 mm | - | 899 W/m² | - |
| 1777828229 | 20.56° C | 37% | 957.7 hPa | 0 mm | - | 881 W/m² | - |
| 1777827926 | 20° C | 36% | 957.7 hPa | 0 mm | - | 865 W/m² | - |
| 1777827626 | 20° C | 37% | 957.6 hPa | 0 mm | - | 851 W/m² | - |
| 1777827326 | 20° C | 37% | 957.7 hPa | 0 mm | - | 851 W/m² | - |
| 1777827023 | 19.44° C | 37% | 957.7 hPa | 0 mm | - | 765 W/m² | - |
| 1777826724 | 19.44° C | 37% | 957.8 hPa | 0 mm | - | 789 W/m² | - |
| 1777826424 | 19.44° C | 37% | 957.7 hPa | 0 mm | - | 771 W/m² | - |
| 1777826123 | 19.44° C | 38% | 957.6 hPa | 0 mm | - | 766 W/m² | - |
| 1777825824 | 19.44° C | 38% | 957.9 hPa | 0 mm | - | 591 W/m² | - |
| 1777825524 | 19.44° C | 38% | 957.7 hPa | 0 mm | - | 654 W/m² | - |
| 1777825224 | 19.44° C | 37% | 957.7 hPa | 0 mm | - | 818 W/m² | - |
| 1777824923 | 19.44° C | 39% | 957.6 hPa | 0 mm | - | 736 W/m² | - |
| 1777824624 | 18.89° C | 39% | 957.8 hPa | 0 mm | - | 779 W/m² | - |
| 1777824326 | 18.89° C | 40% | 957.8 hPa | 0 mm | - | 775 W/m² | - |
| 1777824025 | 18.89° C | 41% | 957.8 hPa | 0 mm | - | 773 W/m² | - |
* Rain latest hour (hover to see other rain measurements)
** Current wind speed in m/s (hover to see current wind gust speed)